Portada
METAR-TAF:

METAR-TAF

Aeropuertos :

Aeropuerto Los Tacariguas

Maracay, Venezuela

latitud: 10-15N, longitud: 067-39W, altitud: 436 m

Observación

El informe se hizo hace 55 minutos, a las 01:03 UTC
Viento 5 kt del oeste
Temperatura 24°C
Humedad 83%
Presión 1016 hPa

METAR: SVBS 230103Z AUTO 27005KT NCD 24/21 Q1016

Hora: 21:58 (01:58 UTC)


TAF: falta

Observaciones y pronósticos meteorológicos de más de 4000 aeropuertos (mensajes METAR y TAF).

Los puntos amarillos y rojos representan las estaciones disponibles.

Ponga el ratón en el punto deseado para ver el nombre de la estación.

Haga clic para ver las observaciones y los pronósticos meteorológicos.

Para cambiar el mapa : haga clic en los botones verdes con una cruz de color negro para hacer un zoom, en el botón verde con un guión para alejar o en las flechas verdes para mapas adyacentes.


METAR-TAF: